Weather History for Athens, GA

Change the Weather History Date:

Saturday, January 5, 2013

  Actual Average Record
Temperature  
Mean Temperature 38 °F 43 °F  
Max Temperature 52 °F 53 °F 76 °F (1950)
Min Temperature 24 °F 33 °F 11 °F (1981)
Degree Days  
Heating Degree Days 27 22  
Month to date heating degree days 106 110  
Since 1 July heating degree days 1091 1200  
Moisture  
Dew Point 25 °F    
Average Humidity 60    
Maximum Humidity 88    
Minimum Humidity 32    
Precipitation  
Precipitation 0.01 in 0.13 in 2.80 in (1966)
Month to date precipitation 1.07 0.60  
Year to date precipitation 1.07 0.60  
Snow  
Snow 0.00 in 0.00 in 0.00 in (2002)
Month to date snowfall 0.0 0.1  
Since 1 July snowfall 0.0 0.2  
Snow Depth -    
Sea Level Pressure  
Sea Level Pressure 30.34 in    
Wind  
Wind Speed 1 mph (SSW)    
Max Wind Speed 7 mph    
Max Gust Speed 9 mph    
Visibility 10 miles    
Events Rain    
T = Trace of Precipitation, MM = Missing Value Source: NWS Daily Summary

Daily Weather History Graph

Daily Weather History Graph

Search for Another Location

Airport:

Trip Planner

Search our weather history database for the weather conditions in past years. The results will help you decide how hot, cold, wet, or windy it might be!

Date:

Astronomy

Jan. 05, 2013 Rise Set
Actual Time 7:39 AM EST 5:38 PM EST
Civil Twilight 7:11 AM EST 6:06 PM EST
Nautical Twilight 6:40 AM EST 6:37 PM EST
Astronomical Twilight 6:10 AM EST 7:07 PM EST
Moon 12:54 AM EST (1/5) 12:19 PM EST (1/5)
Length of Visible Light 10h 54m
Length of Day
9h 59m
Last Quarter, 44% of the Moon is Illuminated
Jan 5
Last Quarter
Jan 11
New
Jan 18
First Quarter
Jan 26
Full
Feb 3
Last Quarter

Hourly Weather History & Observations

Time (EST) Temp. Windchill Dew Point Humidity Pressure Visibility Wind Dir Wind Speed Gust Speed Precip Events Conditions
12:51 AM 30.9 °F - 21.0 °F 67% 30.36 in 10.0 mi Calm Calm - N/A   Clear
1:51 AM 30.9 °F - 21.0 °F 67% 30.35 in 10.0 mi Calm Calm - N/A   Clear
2:51 AM 30.0 °F - 21.0 °F 69% 30.35 in 10.0 mi Calm Calm - N/A   Clear
3:51 AM 30.0 °F - 21.9 °F 72% 30.35 in 10.0 mi Calm Calm - N/A   Clear
4:51 AM 24.8 °F - 21.2 °F 86% 30.33 in 10.0 mi Calm Calm - N/A   Clear
5:51 AM 27.0 °F - 21.0 °F 78% 30.36 in 10.0 mi Calm Calm - N/A   Clear
6:51 AM 24.8 °F - 21.2 °F 86% 30.35 in 10.0 mi Calm Calm - N/A   Clear
7:51 AM 27.0 °F - 23.0 °F 85% 30.40 in 9.0 mi Calm Calm - N/A   Clear
8:51 AM 32.0 °F - 24.8 °F 75% 30.38 in 9.0 mi Calm Calm - N/A   Clear
9:51 AM 37.4 °F - 24.8 °F 60% 30.39 in 10.0 mi Calm Calm - N/A   Clear
10:51 AM 42.1 °F - 21.9 °F 45% 30.41 in 10.0 mi Calm Calm - N/A   Clear
11:51 AM 46.0 °F 44.8 °F 21.9 °F 39% 30.39 in 10.0 mi Variable 3.5 mph - N/A   Clear
12:51 PM 48.0 °F - 23.0 °F 37% 30.36 in 10.0 mi Variable 3.5 mph - N/A   Clear
1:51 PM 48.9 °F - 21.0 °F 33% 30.33 in 10.0 mi Variable 3.5 mph - N/A   Clear
2:51 PM 50.0 °F - 21.9 °F 33% 30.30 in 10.0 mi South 3.5 mph - N/A   Clear
3:51 PM 51.1 °F - 23.0 °F 33% 30.30 in 10.0 mi SW 3.5 mph - N/A   Clear
4:51 PM 50.0 °F - 24.1 °F 36% 30.30 in 10.0 mi WSW 3.5 mph - N/A   Clear
5:51 PM 46.9 °F - 26.1 °F 44% 30.31 in 10.0 mi Calm Calm - N/A   Scattered Clouds
6:51 PM 46.9 °F - 27.0 °F 46% 30.32 in 10.0 mi Calm Calm - N/A   Mostly Cloudy
7:51 PM 46.0 °F - 30.0 °F 54% 30.35 in 10.0 mi Calm Calm - 0.00 in Rain Light Rain
8:51 PM 45.0 °F - 34.0 °F 65% 30.34 in 10.0 mi Calm Calm - 0.00 in Rain Light Rain
9:51 PM 44.1 °F - 37.9 °F 79% 30.30 in 10.0 mi Calm Calm - 0.00 in   Overcast
10:51 PM 43.0 °F - 37.9 °F 82% 30.27 in 10.0 mi Calm Calm - 0.00 in Rain Light Rain
11:51 PM 42.8 °F - 37.4 °F 81% 30.27 in 10.0 mi Calm Calm - N/A   Overcast